Time,TemperatureF,DewpointF,PressureIn,WindDirection,WindDirectionDegrees,WindSpeedMPH,WindSpeedGustMPH,Humidity,HourlyPrecipIn,Conditions,Clouds,dailyrainin,SoftwareType,DateUTC
2013-08-04 00:00:00,49.6,48.2,29.98,WNW,291,1.0,1.0,95,0.00,,,0.00,Wunderground v.1.15,2013-08-04 07:00:00,
2013-08-04 00:10:00,49.7,48.3,29.98,WNW,291,1.0,1.0,95,0.00,,,0.00,Wunderground v.1.15,2013-08-04 07:10:00,
2013-08-04 00:15:00,49.5,48.1,29.98,WNW,291,0.0,1.0,95,0.00,,,0.00,Wunderground v.1.15,2013-08-04 07:15:00,
2013-08-04 00:20:00,49.3,47.9,29.98,WNW,291,1.0,1.0,95,0.00,,,0.00,Wunderground v.1.15,2013-08-04 07:20:00,
2013-08-04 00:25:00,49.3,47.9,29.98,WNW,291,0.0,1.0,95,0.00,,,0.00,Wunderground v.1.15,2013-08-04 07:25:00,
2013-08-04 00:30:00,49.2,47.8,29.98,WNW,291,0.0,1.0,95,0.00,,,0.00,Wunderground v.1.15,2013-08-04 07:30:00,
2013-08-04 00:35:00,49.0,47.6,29.98,WNW,291,0.0,1.0,95,0.00,,,0.00,Wunderground v.1.15,2013-08-04 07:35:00,
2013-08-04 00:40:00,49.1,47.7,29.98,WNW,291,0.0,0.0,95,0.00,,,0.00,Wunderground v.1.15,2013-08-04 07:40:00,
2013-08-04 00:45:00,49.2,47.8,29.98,WNW,291,0.0,0.0,95,0.00,,,0.00,Wunderground v.1.15,2013-08-04 07:45:00,
2013-08-04 00:50:00,49.2,47.8,29.98,WNW,291,0.0,0.0,95,0.00,,,0.00,Wunderground v.1.15,2013-08-04 07:50:00,
2013-08-04 00:55:00,49.1,47.7,29.98,WNW,291,0.0,0.0,95,0.00,,,0.00,Wunderground v.1.15,2013-08-04 07:55:00,
2013-08-04 01:00:00,49.1,47.7,29.98,WNW,291,0.0,1.0,95,0.00,,,0.00,Wunderground v.1.15,2013-08-04 08:00:00,
2013-08-04 01:10:00,49.1,47.7,29.98,WNW,291,0.0,0.0,95,0.00,,,0.00,Wunderground v.1.15,2013-08-04 08:10:00,
2013-08-04 01:15:00,49.0,47.6,29.98,WNW,290,0.0,1.0,95,0.00,,,0.00,Wunderground v.1.15,2013-08-04 08:15:00,
2013-08-04 01:20:00,48.9,47.5,29.98,WNW,291,0.0,0.0,95,0.00,,,0.00,Wunderground v.1.15,2013-08-04 08:20:00,
2013-08-04 01:25:00,49.0,47.6,29.97,WNW,291,0.0,0.0,95,0.00,,,0.00,Wunderground v.1.15,2013-08-04 08:25:00,
2013-08-04 01:29:00,48.8,47.4,29.97,WNW,291,0.0,0.0,95,0.00,,,0.00,Wunderground v.1.15,2013-08-04 08:29:00,
2013-08-04 01:35:00,48.7,47.3,29.97,WNW,291,0.0,0.0,95,0.00,,,0.00,Wunderground v.1.15,2013-08-04 08:35:00,
2013-08-04 01:40:00,48.6,47.2,29.97,WNW,291,1.0,1.0,95,0.00,,,0.00,Wunderground v.1.15,2013-08-04 08:40:00,
2013-08-04 01:45:00,48.4,47.0,29.97,WNW,291,1.0,1.0,95,0.00,,,0.00,Wunderground v.1.15,2013-08-04 08:45:00,
2013-08-04 01:50:00,48.3,46.9,29.97,WNW,291,1.0,1.0,95,0.00,,,0.00,Wunderground v.1.15,2013-08-04 08:50:00,
2013-08-04 01:55:00,48.4,47.3,29.97,West,271,0.0,1.0,96,0.00,,,0.00,Wunderground v.1.15,2013-08-04 08:55:00,
2013-08-04 02:00:00,48.5,47.4,29.97,West,271,0.0,0.0,96,0.00,,,0.00,Wunderground v.1.15,2013-08-04 09:00:00,
2013-08-04 02:05:00,48.5,47.4,29.97,West,271,0.0,1.0,96,0.00,,,0.00,Wunderground v.1.15,2013-08-04 09:05:00,
2013-08-04 02:10:00,48.3,46.9,29.97,West,271,0.0,1.0,95,0.00,,,0.00,Wunderground v.1.15,2013-08-04 09:10:00,
2013-08-04 02:15:00,48.0,46.6,29.97,West,271,0.0,1.0,95,0.00,,,0.00,Wunderground v.1.15,2013-08-04 09:15:00,
2013-08-04 02:20:00,48.0,46.6,29.97,West,271,0.0,0.0,95,0.00,,,0.00,Wunderground v.1.15,2013-08-04 09:20:00,
2013-08-04 02:25:00,47.9,46.5,29.97,West,271,0.0,0.0,95,0.00,,,0.00,Wunderground v.1.15,2013-08-04 09:25:00,
2013-08-04 02:30:00,48.0,46.6,29.97,West,271,0.0,0.0,95,0.00,,,0.00,Wunderground v.1.15,2013-08-04 09:30:00,
2013-08-04 02:35:00,48.2,47.1,29.97,West,271,0.0,0.0,96,0.00,,,0.00,Wunderground v.1.15,2013-08-04 09:35:00,
2013-08-04 02:40:00,48.3,47.2,29.97,West,271,0.0,0.0,96,0.00,,,0.00,Wunderground v.1.15,2013-08-04 09:40:00,
2013-08-04 02:45:00,48.4,47.3,29.97,West,271,0.0,0.0,96,0.00,,,0.00,Wunderground v.1.15,2013-08-04 09:45:00,
2013-08-04 02:50:00,48.4,47.3,29.97,NE,53,0.0,0.0,96,0.00,,,0.00,Wunderground v.1.15,2013-08-04 09:50:00,
2013-08-04 02:55:00,48.4,47.3,29.97,NE,52,0.0,0.0,96,0.00,,,0.00,Wunderground v.1.15,2013-08-04 09:55:00,
2013-08-04 03:00:00,48.1,47.0,29.97,NE,53,0.0,0.0,96,0.00,,,0.00,Wunderground v.1.15,2013-08-04 10:00:00,
2013-08-04 03:05:00,47.8,46.4,29.97,NE,42,0.0,0.0,95,0.00,,,0.00,Wunderground v.1.15,2013-08-04 10:05:00,
2013-08-04 03:10:00,47.7,46.3,29.97,NE,43,0.0,0.0,95,0.00,,,0.00,Wunderground v.1.15,2013-08-04 10:10:00,
2013-08-04 03:15:00,47.8,46.7,29.97,NE,43,0.0,0.0,96,0.00,,,0.00,Wunderground v.1.15,2013-08-04 10:15:00,
2013-08-04 03:20:00,47.7,46.6,29.97,NE,42,0.0,0.0,96,0.00,,,0.00,Wunderground v.1.15,2013-08-04 10:20:00,
2013-08-04 03:30:00,47.9,46.8,29.98,NE,43,0.0,0.0,96,0.00,,,0.00,Wunderground v.1.15,2013-08-04 10:30:00,
2013-08-04 03:35:00,47.8,46.7,29.98,NE,43,0.0,0.0,96,0.00,,,0.00,Wunderground v.1.15,2013-08-04 10:35:00,
2013-08-04 03:40:00,47.7,46.6,29.97,NE,43,0.0,0.0,96,0.00,,,0.00,Wunderground v.1.15,2013-08-04 10:40:00,
2013-08-04 03:50:00,47.2,45.8,29.97,NE,43,0.0,0.0,95,0.00,,,0.00,Wunderground v.1.15,2013-08-04 10:50:00,
2013-08-04 03:55:00,46.8,45.4,29.97,NE,43,0.0,0.0,95,0.00,,,0.00,Wunderground v.1.15,2013-08-04 10:55:00,
2013-08-04 04:00:00,46.7,45.3,29.97,NE,43,0.0,0.0,95,0.00,,,0.00,Wunderground v.1.15,2013-08-04 11:00:00,
2013-08-04 04:05:00,46.7,45.3,29.97,NE,43,0.0,0.0,95,0.00,,,0.00,Wunderground v.1.15,2013-08-04 11:05:00,
2013-08-04 04:10:00,46.8,45.7,29.97,NE,42,0.0,0.0,96,0.00,,,0.00,Wunderground v.1.15,2013-08-04 11:10:00,
2013-08-04 04:15:00,46.7,45.6,29.97,NE,43,0.0,0.0,96,0.00,,,0.00,Wunderground v.1.15,2013-08-04 11:15:00,
2013-08-04 04:20:00,46.6,45.5,29.97,NE,43,0.0,0.0,96,0.00,,,0.00,Wunderground v.1.15,2013-08-04 11:20:00,
2013-08-04 04:25:00,46.7,45.6,29.97,NE,43,0.0,0.0,96,0.00,,,0.00,Wunderground v.1.15,2013-08-04 11:25:00,
2013-08-04 04:30:00,46.4,45.3,29.97,NE,43,0.0,0.0,96,0.00,,,0.00,Wunderground v.1.15,2013-08-04 11:30:00,
2013-08-04 04:35:00,46.4,45.3,29.97,NW,316,0.0,2.0,96,0.00,,,0.00,Wunderground v.1.15,2013-08-04 11:35:00,
2013-08-04 04:40:00,46.7,45.6,29.97,NW,309,0.0,0.0,96,0.00,,,0.00,Wunderground v.1.15,2013-08-04 11:40:00,
2013-08-04 04:45:00,46.6,45.5,29.97,NW,309,0.0,0.0,96,0.00,,,0.00,Wunderground v.1.15,2013-08-04 11:45:00,
2013-08-04 04:50:00,46.7,45.6,29.97,WNW,289,0.0,0.0,96,0.00,,,0.00,Wunderground v.1.15,2013-08-04 11:50:00,
2013-08-04 05:00:00,46.9,45.8,29.97,WNW,295,1.0,1.0,96,0.00,,,0.00,Wunderground v.1.15,2013-08-04 12:00:00,
2013-08-04 05:05:00,46.8,45.7,29.97,ENE,68,1.0,2.0,96,0.00,,,0.00,Wunderground v.1.15,2013-08-04 12:05:00,
2013-08-04 05:10:00,46.6,45.5,29.97,ENE,68,0.0,0.0,96,0.00,,,0.00,Wunderground v.1.15,2013-08-04 12:10:00,
2013-08-04 05:15:00,46.7,45.6,29.97,ENE,68,0.0,0.0,96,0.00,,,0.00,Wunderground v.1.15,2013-08-04 12:15:00,
2013-08-04 05:20:00,46.7,45.6,29.97,ENE,68,0.0,0.0,96,0.00,,,0.00,Wunderground v.1.15,2013-08-04 12:20:00,
2013-08-04 05:25:00,46.6,45.5,29.97,ENE,67,0.0,0.0,96,0.00,,,0.00,Wunderground v.1.15,2013-08-04 12:25:00,
2013-08-04 05:35:00,46.8,45.7,29.97,NW,309,0.0,0.0,96,0.00,,,0.00,Wunderground v.1.15,2013-08-04 12:35:00,
2013-08-04 05:45:00,46.9,45.8,29.97,NE,38,0.0,0.0,96,0.00,,,0.00,Wunderground v.1.15,2013-08-04 12:45:00,
2013-08-04 05:50:00,46.7,45.6,29.97,NE,38,0.0,0.0,96,0.00,,,0.00,Wunderground v.1.15,2013-08-04 12:50:00,
2013-08-04 05:55:00,46.7,45.6,29.97,NE,38,0.0,0.0,96,0.00,,,0.00,Wunderground v.1.15,2013-08-04 12:55:00,
2013-08-04 06:00:00,46.6,45.5,29.97,ENE,63,0.0,0.0,96,0.00,,,0.00,Wunderground v.1.15,2013-08-04 13:00:00,
2013-08-04 06:10:00,46.7,45.6,29.97,ENE,68,0.0,0.0,96,0.00,,,0.00,Wunderground v.1.15,2013-08-04 13:10:00,
2013-08-04 06:15:00,46.7,45.6,29.97,ENE,68,0.0,0.0,96,0.00,,,0.00,Wunderground v.1.15,2013-08-04 13:15:00,
2013-08-04 06:20:00,46.7,45.6,29.98,ENE,58,0.0,1.0,96,0.00,,,0.00,Wunderground v.1.15,2013-08-04 13:20:00,
2013-08-04 06:25:00,46.6,45.5,29.97,ENE,75,1.0,2.0,96,0.00,,,0.00,Wunderground v.1.15,2013-08-04 13:25:00,
2013-08-04 06:30:00,46.7,45.6,29.97,ENE,76,1.0,2.0,96,0.00,,,0.00,Wunderground v.1.15,2013-08-04 13:30:00,
2013-08-04 06:35:00,46.6,45.5,29.97,ENE,76,1.0,2.0,96,0.00,,,0.00,Wunderground v.1.15,2013-08-04 13:35:00,
2013-08-04 06:40:00,46.6,45.5,29.98,ENE,76,0.0,1.0,96,0.00,,,0.00,Wunderground v.1.15,2013-08-04 13:40:00,
2013-08-04 06:45:00,46.4,45.3,29.98,ENE,78,0.0,1.0,96,0.00,,,0.00,Wunderground v.1.15,2013-08-04 13:45:00,
2013-08-04 06:50:00,46.6,45.5,29.98,ENE,78,1.0,1.0,96,0.00,,,0.00,Wunderground v.1.15,2013-08-04 13:50:00,
2013-08-04 06:55:00,46.5,45.4,29.98,East,81,1.0,1.0,96,0.00,,,0.00,Wunderground v.1.15,2013-08-04 13:55:00,
2013-08-04 07:00:00,46.7,45.6,29.98,East,81,1.0,1.0,96,0.00,,,0.00,Wunderground v.1.15,2013-08-04 14:00:00,
2013-08-04 07:10:00,46.5,45.4,29.98,East,87,1.0,2.0,96,0.00,,,0.00,Wunderground v.1.15,2013-08-04 14:10:00,
2013-08-04 07:15:00,46.6,45.5,29.98,ENE,70,1.0,2.0,96,0.00,,,0.00,Wunderground v.1.15,2013-08-04 14:15:00,
2013-08-04 07:19:00,46.7,45.6,29.98,ENE,76,1.0,2.0,96,0.00,,,0.00,Wunderground v.1.15,2013-08-04 14:19:00,
2013-08-04 07:25:00,46.9,45.8,29.98,ENE,76,2.0,2.0,96,0.00,,,0.00,Wunderground v.1.15,2013-08-04 14:25:00,
2013-08-04 07:30:00,46.8,45.7,29.98,ENE,78,2.0,2.0,96,0.00,,,0.00,Wunderground v.1.15,2013-08-04 14:30:00,
2013-08-04 07:35:00,46.9,45.8,29.98,ENE,77,1.0,2.0,96,0.00,,,0.00,Wunderground v.1.15,2013-08-04 14:35:00,
2013-08-04 07:40:00,47.4,46.3,29.98,ENE,78,0.0,0.0,96,0.00,,,0.00,Wunderground v.1.15,2013-08-04 14:40:00,
2013-08-04 07:50:00,48.3,47.2,29.99,ENE,78,0.0,0.0,96,0.00,,,0.00,Wunderground v.1.15,2013-08-04 14:50:00,
2013-08-04 07:55:00,48.4,47.3,29.99,ENE,78,0.0,0.0,96,0.00,,,0.00,Wunderground v.1.15,2013-08-04 14:55:00,
2013-08-04 08:00:00,48.6,47.5,29.99,ENE,77,0.0,0.0,96,0.00,,,0.00,Wunderground v.1.15,2013-08-04 15:00:00,
2013-08-04 08:05:00,48.9,47.8,29.99,East,86,0.0,0.0,96,0.00,,,0.00,Wunderground v.1.15,2013-08-04 15:05:00,
2013-08-04 08:10:00,49.0,47.9,29.99,East,86,0.0,1.0,96,0.00,,,0.00,Wunderground v.1.15,2013-08-04 15:10:00,
2013-08-04 08:20:00,49.3,48.2,29.99,East,88,0.0,0.0,96,0.00,,,0.00,Wunderground v.1.15,2013-08-04 15:20:00,
2013-08-04 08:25:00,49.3,48.2,29.99,East,88,0.0,0.0,96,0.00,,,0.00,Wunderground v.1.15,2013-08-04 15:25:00,
2013-08-04 08:30:00,49.9,48.8,29.99,East,88,0.0,0.0,96,0.00,,,0.00,Wunderground v.1.15,2013-08-04 15:30:00,
2013-08-04 08:35:00,50.2,49.1,29.99,East,88,0.0,0.0,96,0.00,,,0.00,Wunderground v.1.15,2013-08-04 15:35:00,
2013-08-04 08:40:00,50.1,49.0,29.99,WSW,245,0.0,1.0,96,0.00,,,0.00,Wunderground v.1.15,2013-08-04 15:40:00,
2013-08-04 08:45:00,50.2,49.1,29.99,WSW,244,0.0,1.0,96,0.00,,,0.00,Wunderground v.1.15,2013-08-04 15:45:00,
2013-08-04 08:50:00,50.2,49.1,29.99,West,263,0.0,1.0,96,0.00,,,0.00,Wunderground v.1.15,2013-08-04 15:50:00,
2013-08-04 08:55:00,50.0,48.6,29.99,NW,309,1.0,1.0,95,0.00,,,0.00,Wunderground v.1.15,2013-08-04 15:55:00,
2013-08-04 09:00:00,50.4,49.3,30.00,West,269,1.0,1.0,96,0.00,,,0.00,Wunderground v.1.15,2013-08-04 16:00:00,
2013-08-04 09:10:00,50.6,49.5,30.00,WNW,283,1.0,1.0,96,0.00,,,0.00,Wunderground v.1.15,2013-08-04 16:10:00,
2013-08-04 09:20:00,51.8,50.7,30.00,West,274,0.0,0.0,96,0.00,,,0.00,Wunderground v.1.15,2013-08-04 16:20:00,
2013-08-04 09:25:00,52.5,51.4,30.00,WSW,245,0.0,0.0,96,0.00,,,0.00,Wunderground v.1.15,2013-08-04 16:25:00,
2013-08-04 09:30:00,52.9,51.5,30.00,SW,228,0.0,1.0,95,0.00,,,0.00,Wunderground v.1.15,2013-08-04 16:30:00,
2013-08-04 09:35:00,53.0,51.6,29.99,WNW,288,1.0,1.0,95,0.00,,,0.00,Wunderground v.1.15,2013-08-04 16:35:00,
2013-08-04 09:40:00,53.5,52.1,29.99,WSW,255,1.0,1.0,95,0.00,,,0.00,Wunderground v.1.15,2013-08-04 16:40:00,
2013-08-04 09:45:00,53.3,51.6,29.99,WNW,299,1.0,1.0,94,0.00,,,0.00,Wunderground v.1.15,2013-08-04 16:45:00,
2013-08-04 09:50:00,53.9,52.2,29.99,WSW,255,1.0,1.0,94,0.00,,,0.00,Wunderground v.1.15,2013-08-04 16:50:00,
2013-08-04 09:55:00,54.5,52.8,29.99,WNW,294,1.0,1.0,94,0.00,,,0.00,Wunderground v.1.15,2013-08-04 16:55:00,
2013-08-04 10:00:00,55.1,53.4,29.99,WNW,284,1.0,2.0,94,0.00,,,0.00,Wunderground v.1.15,2013-08-04 17:00:00,
2013-08-04 10:05:00,55.3,53.3,29.99,West,277,1.0,2.0,93,0.00,,,0.00,Wunderground v.1.15,2013-08-04 17:05:00,
2013-08-04 10:10:00,55.7,53.7,29.99,WNW,293,1.0,1.0,93,0.00,,,0.00,Wunderground v.1.15,2013-08-04 17:10:00,
2013-08-04 10:15:00,56.0,53.4,30.00,West,280,1.0,1.0,91,0.00,,,0.00,Wunderground v.1.15,2013-08-04 17:15:00,
2013-08-04 10:20:00,56.1,53.5,30.00,WNW,282,1.0,1.0,91,0.00,,,0.00,Wunderground v.1.15,2013-08-04 17:20:00,
2013-08-04 10:25:00,56.9,54.3,30.00,WNW,283,1.0,1.0,91,0.00,,,0.00,Wunderground v.1.15,2013-08-04 17:25:00,
2013-08-04 10:30:00,57.4,54.2,30.00,WNW,293,1.0,1.0,89,0.00,,,0.00,Wunderground v.1.15,2013-08-04 17:30:00,
2013-08-04 10:35:00,57.9,54.7,30.00,SW,236,1.0,1.0,89,0.00,,,0.00,Wunderground v.1.15,2013-08-04 17:35:00,
2013-08-04 10:40:00,58.9,55.0,30.00,WNW,285,1.0,1.0,87,0.00,,,0.00,Wunderground v.1.15,2013-08-04 17:40:00,
2013-08-04 10:45:00,59.5,54.7,30.00,West,277,1.0,1.0,84,0.00,,,0.00,Wunderground v.1.15,2013-08-04 17:45:00,
2013-08-04 10:50:00,59.8,54.6,30.00,West,276,1.0,1.0,83,0.00,,,0.00,Wunderground v.1.15,2013-08-04 17:50:00,
2013-08-04 10:55:00,60.5,55.0,30.00,West,269,1.0,2.0,82,0.00,,,0.00,Wunderground v.1.15,2013-08-04 17:55:00,
2013-08-04 11:00:00,60.5,54.3,30.00,West,277,1.0,2.0,80,0.00,,,0.00,Wunderground v.1.15,2013-08-04 18:00:00,
2013-08-04 11:05:00,60.8,54.9,30.00,WSW,253,1.0,2.0,81,0.00,,,0.00,Wunderground v.1.15,2013-08-04 18:05:00,
2013-08-04 11:10:00,61.5,55.3,30.00,WSW,251,1.0,1.0,80,0.00,,,0.00,Wunderground v.1.15,2013-08-04 18:10:00,
2013-08-04 11:15:00,61.8,54.5,30.00,SW,221,1.0,1.0,77,0.00,,,0.00,Wunderground v.1.15,2013-08-04 18:15:00,
2013-08-04 11:20:00,61.7,54.4,30.00,WSW,240,1.0,1.0,77,0.00,,,0.00,Wunderground v.1.15,2013-08-04 18:20:00,
2013-08-04 11:25:00,61.7,54.8,30.00,West,265,1.0,1.0,78,0.00,,,0.00,Wunderground v.1.15,2013-08-04 18:25:00,
2013-08-04 11:30:00,62.4,55.1,30.00,West,263,1.0,1.0,77,0.00,,,0.00,Wunderground v.1.15,2013-08-04 18:30:00,
2013-08-04 11:35:00,63.0,54.9,30.00,SW,235,1.0,1.0,75,0.00,,,0.00,Wunderground v.1.15,2013-08-04 18:35:00,
2013-08-04 11:40:00,62.7,54.7,30.00,NE,53,1.0,1.0,75,0.00,,,0.00,Wunderground v.1.15,2013-08-04 18:40:00,
2013-08-04 11:45:00,63.1,55.0,30.00,NW,305,1.0,2.0,75,0.00,,,0.00,Wunderground v.1.15,2013-08-04 18:45:00,
2013-08-04 11:50:00,62.1,54.8,30.00,NW,305,1.0,1.0,77,0.00,,,0.00,Wunderground v.1.15,2013-08-04 18:50:00,
2013-08-04 11:55:00,62.5,54.8,30.00,SSW,207,1.0,1.0,76,0.00,,,0.00,Wunderground v.1.15,2013-08-04 18:55:00,
2013-08-04 12:00:00,62.8,54.8,30.00,SW,214,1.0,1.0,75,0.00,,,0.00,Wunderground v.1.15,2013-08-04 19:00:00,
2013-08-04 12:05:00,63.0,54.9,30.00,SW,224,1.0,1.0,75,0.00,,,0.00,Wunderground v.1.15,2013-08-04 19:05:00,
2013-08-04 12:10:00,63.0,54.9,30.00,SW,215,1.0,1.0,75,0.00,,,0.00,Wunderground v.1.15,2013-08-04 19:10:00,
2013-08-04 12:15:00,63.6,55.5,30.00,WSW,239,1.0,1.0,75,0.00,,,0.00,Wunderground v.1.15,2013-08-04 19:15:00,
2013-08-04 12:20:00,64.4,55.9,30.00,SSW,210,1.0,1.0,74,0.00,,,0.00,Wunderground v.1.15,2013-08-04 19:20:00,
2013-08-04 12:25:00,64.9,55.7,30.01,SSW,211,1.0,1.0,72,0.00,,,0.00,Wunderground v.1.15,2013-08-04 19:25:00,
2013-08-04 12:30:00,65.6,56.3,30.01,WSW,243,1.0,1.0,72,0.00,,,0.00,Wunderground v.1.15,2013-08-04 19:30:00,
2013-08-04 12:35:00,66.1,56.4,30.01,SSE,160,1.0,1.0,71,0.00,,,0.00,Wunderground v.1.15,2013-08-04 19:35:00,
2013-08-04 12:40:00,66.4,56.3,30.00,SSW,203,1.0,1.0,70,0.00,,,0.00,Wunderground v.1.15,2013-08-04 19:40:00,
2013-08-04 12:45:00,66.3,55.8,30.01,WSW,243,1.0,2.0,69,0.00,,,0.00,Wunderground v.1.15,2013-08-04 19:45:00,
2013-08-04 12:50:00,66.5,56.0,30.00,SSW,193,1.0,1.0,69,0.00,,,0.00,Wunderground v.1.15,2013-08-04 19:50:00,
2013-08-04 12:55:00,66.7,56.2,30.00,SW,215,1.0,1.0,69,0.00,,,0.00,Wunderground v.1.15,2013-08-04 19:55:00,
2013-08-04 13:00:00,66.7,56.6,30.00,SSW,208,1.0,1.0,70,0.00,,,0.00,Wunderground v.1.15,2013-08-04 20:00:00,
2013-08-04 13:05:00,67.4,56.5,30.00,SSW,209,1.0,1.0,68,0.00,,,0.00,Wunderground v.1.15,2013-08-04 20:05:00,
2013-08-04 13:10:00,67.7,56.8,30.00,SW,214,1.0,1.0,68,0.00,,,0.00,Wunderground v.1.15,2013-08-04 20:10:00,
2013-08-04 13:15:00,67.7,56.3,30.00,SSW,200,1.0,1.0,67,0.00,,,0.00,Wunderground v.1.15,2013-08-04 20:15:00,
2013-08-04 13:20:00,67.3,56.4,30.00,SW,229,1.0,1.0,68,0.00,,,0.00,Wunderground v.1.15,2013-08-04 20:20:00,
2013-08-04 13:25:00,68.4,56.6,30.00,WSW,239,1.0,2.0,66,0.00,,,0.00,Wunderground v.1.15,2013-08-04 20:25:00,
2013-08-04 13:30:00,68.2,56.4,30.00,SW,232,1.0,1.0,66,0.00,,,0.00,Wunderground v.1.15,2013-08-04 20:30:00,
2013-08-04 13:35:00,68.4,56.2,30.00,SSW,196,1.0,1.0,65,0.00,,,0.00,Wunderground v.1.15,2013-08-04 20:35:00,
2013-08-04 13:40:00,68.2,56.0,30.00,SSE,165,1.0,1.0,65,0.00,,,0.00,Wunderground v.1.15,2013-08-04 20:40:00,
2013-08-04 13:45:00,68.1,55.9,30.00,SW,236,1.0,1.0,65,0.00,,,0.00,Wunderground v.1.15,2013-08-04 20:45:00,
2013-08-04 13:50:00,67.2,55.9,30.00,SSE,158,1.0,1.0,67,0.00,,,0.00,Wunderground v.1.15,2013-08-04 20:50:00,
2013-08-04 13:55:00,67.4,56.1,30.00,SSW,203,1.0,1.0,67,0.00,,,0.00,Wunderground v.1.15,2013-08-04 20:55:00,
2013-08-04 14:00:00,67.6,56.2,30.00,SE,145,1.0,2.0,67,0.00,,,0.00,Wunderground v.1.15,2013-08-04 21:00:00,
2013-08-04 14:05:00,67.5,56.2,30.00,SW,224,1.0,2.0,67,0.00,,,0.00,Wunderground v.1.15,2013-08-04 21:05:00,
2013-08-04 14:10:00,68.0,55.8,30.00,SE,127,1.0,1.0,65,0.00,,,0.00,Wunderground v.1.15,2013-08-04 21:10:00,
2013-08-04 14:15:00,68.0,56.2,29.99,SE,134,1.0,1.0,66,0.00,,,0.00,Wunderground v.1.15,2013-08-04 21:15:00,
2013-08-04 14:20:00,68.2,56.0,30.00,SSW,203,1.0,1.0,65,0.00,,,0.00,Wunderground v.1.15,2013-08-04 21:20:00,
2013-08-04 14:25:00,68.2,56.0,29.99,SSW,207,1.0,1.0,65,0.00,,,0.00,Wunderground v.1.15,2013-08-04 21:25:00,
2013-08-04 14:35:00,68.3,56.1,29.99,SW,233,1.0,1.0,65,0.00,,,0.00,Wunderground v.1.15,2013-08-04 21:35:00,
2013-08-04 14:40:00,68.2,55.6,29.99,SSW,212,1.0,2.0,64,0.00,,,0.00,Wunderground v.1.15,2013-08-04 21:40:00,
2013-08-04 14:45:00,68.3,56.1,29.99,SW,214,1.0,2.0,65,0.00,,,0.00,Wunderground v.1.15,2013-08-04 21:45:00,
2013-08-04 14:50:00,68.4,56.2,29.99,WSW,240,1.0,1.0,65,0.00,,,0.00,Wunderground v.1.15,2013-08-04 21:50:00,
2013-08-04 14:55:00,68.5,56.3,29.99,SW,229,1.0,2.0,65,0.00,,,0.00,Wunderground v.1.15,2013-08-04 21:55:00,
2013-08-04 15:00:00,68.2,55.6,29.99,SW,218,1.0,1.0,64,0.00,,,0.00,Wunderground v.1.15,2013-08-04 22:00:00,
2013-08-04 15:04:00,68.2,56.0,29.99,SSW,198,1.0,1.0,65,0.00,,,0.00,Wunderground v.1.15,2013-08-04 22:04:00,
2013-08-04 15:10:00,68.0,55.4,29.99,WSW,240,1.0,2.0,64,0.00,,,0.00,Wunderground v.1.15,2013-08-04 22:10:00,
2013-08-04 15:15:00,67.8,56.0,29.98,SW,221,1.0,2.0,66,0.00,,,0.00,Wunderground v.1.15,2013-08-04 22:15:00,
2013-08-04 15:20:00,68.3,56.1,29.98,SSW,203,1.0,2.0,65,0.00,,,0.00,Wunderground v.1.15,2013-08-04 22:20:00,
2013-08-04 15:25:00,68.4,55.7,29.98,SW,215,1.0,2.0,64,0.00,,,0.00,Wunderground v.1.15,2013-08-04 22:25:00,
2013-08-04 15:30:00,68.4,55.7,29.98,SSW,203,1.0,1.0,64,0.00,,,0.00,Wunderground v.1.15,2013-08-04 22:30:00,
2013-08-04 15:35:00,67.9,55.3,29.98,WSW,238,1.0,1.0,64,0.00,,,0.00,Wunderground v.1.15,2013-08-04 22:35:00,
2013-08-04 15:40:00,68.0,55.8,29.98,WSW,238,1.0,1.0,65,0.00,,,0.00,Wunderground v.1.15,2013-08-04 22:40:00,
2013-08-04 15:50:00,67.6,55.4,29.98,SW,231,1.0,2.0,65,0.00,,,0.00,Wunderground v.1.15,2013-08-04 22:50:00,
2013-08-04 16:00:00,66.9,55.2,29.98,SW,227,1.0,1.0,66,0.00,,,0.00,Wunderground v.1.15,2013-08-04 23:00:00,
2013-08-04 16:05:00,66.7,55.4,29.98,SW,214,1.0,1.0,67,0.00,,,0.00,Wunderground v.1.15,2013-08-04 23:05:00,
2013-08-04 16:10:00,66.3,55.4,29.98,SW,233,1.0,1.0,68,0.00,,,0.00,Wunderground v.1.15,2013-08-04 23:10:00,
2013-08-04 16:15:00,66.4,54.7,29.98,SW,222,1.0,1.0,66,0.00,,,0.00,Wunderground v.1.15,2013-08-04 23:15:00,
2013-08-04 16:20:00,66.0,54.7,29.98,SW,220,1.0,1.0,67,0.00,,,0.00,Wunderground v.1.15,2013-08-04 23:20:00,
2013-08-04 16:25:00,65.7,54.8,29.98,SW,224,1.0,2.0,68,0.00,,,0.00,Wunderground v.1.15,2013-08-04 23:25:00,
2013-08-04 16:30:00,65.4,54.6,29.98,SW,219,1.0,1.0,68,0.00,,,0.00,Wunderground v.1.15,2013-08-04 23:30:00,
2013-08-04 16:35:00,66.0,55.1,29.98,SW,214,1.0,1.0,68,0.00,,,0.00,Wunderground v.1.15,2013-08-04 23:35:00,
2013-08-04 16:40:00,65.6,54.3,29.98,SW,228,1.0,1.0,67,0.00,,,0.00,Wunderground v.1.15,2013-08-04 23:40:00,
2013-08-04 16:44:00,64.6,54.2,29.98,SSW,200,1.0,1.0,69,0.00,,,0.00,Wunderground v.1.15,2013-08-04 23:44:00,
2013-08-04 16:50:00,64.5,54.1,29.98,SE,132,1.0,1.0,69,0.00,,,0.00,Wunderground v.1.15,2013-08-04 23:50:00,
2013-08-04 16:55:00,64.7,54.3,29.98,South,170,1.0,1.0,69,0.00,,,0.00,Wunderground v.1.15,2013-08-04 23:55:00,
2013-08-04 17:00:00,64.2,53.8,29.98,West,260,1.0,1.0,69,0.00,,,0.00,Wunderground v.1.15,2013-08-05 00:00:00,
2013-08-04 17:05:00,64.1,54.1,29.98,SSW,212,1.0,1.0,70,0.00,,,0.00,Wunderground v.1.15,2013-08-05 00:05:00,
2013-08-04 17:10:00,63.8,53.8,29.98,SW,221,1.0,1.0,70,0.00,,,0.00,Wunderground v.1.15,2013-08-05 00:10:00,
2013-08-04 17:14:00,63.6,54.0,29.98,SSW,196,1.0,1.0,71,0.00,,,0.00,Wunderground v.1.15,2013-08-05 00:14:00,
2013-08-04 17:20:00,63.4,53.8,29.98,WSW,238,1.0,1.0,71,0.00,,,0.00,Wunderground v.1.15,2013-08-05 00:20:00,
2013-08-04 17:25:00,63.0,53.4,29.98,SW,220,1.0,2.0,71,0.00,,,0.00,Wunderground v.1.15,2013-08-05 00:25:00,
2013-08-04 17:30:00,62.9,53.7,29.98,SSW,212,1.0,1.0,72,0.00,,,0.00,Wunderground v.1.15,2013-08-05 00:30:00,
2013-08-04 17:35:00,62.6,53.4,29.98,WSW,242,1.0,1.0,72,0.00,,,0.00,Wunderground v.1.15,2013-08-05 00:35:00,
2013-08-04 17:40:00,62.1,53.0,29.98,WNW,299,1.0,1.0,72,0.00,,,0.00,Wunderground v.1.15,2013-08-05 00:40:00,
2013-08-04 17:45:00,61.5,53.1,29.98,West,281,1.0,2.0,74,0.00,,,0.00,Wunderground v.1.15,2013-08-05 00:45:00,
2013-08-04 17:50:00,60.9,52.9,29.98,North,356,1.0,1.0,75,0.00,,,0.00,Wunderground v.1.15,2013-08-05 00:50:00,
2013-08-04 17:55:00,60.7,52.4,29.98,WNW,302,1.0,1.0,74,0.00,,,0.00,Wunderground v.1.15,2013-08-05 00:55:00,
2013-08-04 18:00:00,59.5,52.3,29.98,West,281,1.0,1.0,77,0.00,,,0.00,Wunderground v.1.15,2013-08-05 01:00:00,
2013-08-04 18:10:00,58.7,51.9,29.98,WNW,300,1.0,3.0,78,0.00,,,0.00,Wunderground v.1.15,2013-08-05 01:10:00,
2013-08-04 18:15:00,57.8,52.0,29.98,WNW,293,2.0,3.0,81,0.00,,,0.00,Wunderground v.1.15,2013-08-05 01:15:00,
2013-08-04 18:19:00,56.9,51.1,29.97,West,278,2.0,3.0,81,0.00,,,0.00,Wunderground v.1.15,2013-08-05 01:19:00,
2013-08-04 18:24:00,55.4,50.6,29.97,West,281,2.0,3.0,84,0.00,,,0.00,Wunderground v.1.15,2013-08-05 01:24:00,
2013-08-04 18:29:00,54.6,50.5,29.97,WNW,289,2.0,2.0,86,0.00,,,0.00,Wunderground v.1.15,2013-08-05 01:29:00,
2013-08-04 18:35:00,54.2,50.4,29.97,WNW,284,2.0,3.0,87,0.00,,,0.00,Wunderground v.1.15,2013-08-05 01:35:00,
2013-08-04 18:40:00,53.8,50.3,29.97,West,273,3.0,4.0,88,0.00,,,0.00,Wunderground v.1.15,2013-08-05 01:40:00,
2013-08-04 18:45:00,53.4,50.2,29.97,WNW,295,3.0,4.0,89,0.00,,,0.00,Wunderground v.1.15,2013-08-05 01:45:00,
2013-08-04 18:50:00,53.0,50.1,29.97,West,280,3.0,3.0,90,0.00,,,0.00,Wunderground v.1.15,2013-08-05 01:50:00,
2013-08-04 18:54:00,52.8,50.2,29.97,WNW,287,3.0,3.0,91,0.00,,,0.00,Wunderground v.1.15,2013-08-05 01:54:00,
2013-08-04 19:00:00,52.6,50.0,29.97,WNW,289,3.0,3.0,91,0.00,,,0.00,Wunderground v.1.15,2013-08-05 02:00:00,
2013-08-04 19:05:00,52.4,50.1,29.97,WNW,287,3.0,3.0,92,0.00,,,0.00,Wunderground v.1.15,2013-08-05 02:05:00,
2013-08-04 19:10:00,52.3,50.0,29.98,West,276,3.0,3.0,92,0.00,,,0.00,Wunderground v.1.15,2013-08-05 02:10:00,
2013-08-04 19:15:00,52.2,49.9,29.97,West,281,2.0,3.0,92,0.00,,,0.00,Wunderground v.1.15,2013-08-05 02:15:00,
2013-08-04 19:20:00,52.1,50.1,29.98,West,280,2.0,2.0,93,0.00,,,0.00,Wunderground v.1.15,2013-08-05 02:20:00,
2013-08-04 19:25:00,52.1,50.1,29.98,WNW,296,2.0,3.0,93,0.00,,,0.00,Wunderground v.1.15,2013-08-05 02:25:00,
2013-08-04 19:30:00,51.9,49.9,29.98,WNW,287,2.0,2.0,93,0.00,,,0.00,Wunderground v.1.15,2013-08-05 02:30:00,
2013-08-04 19:35:00,51.9,49.9,29.98,WNW,294,2.0,2.0,93,0.00,,,0.00,Wunderground v.1.15,2013-08-05 02:35:00,
2013-08-04 19:40:00,51.9,49.9,29.98,WNW,294,1.0,1.0,93,0.00,,,0.00,Wunderground v.1.15,2013-08-05 02:40:00,
2013-08-04 19:45:00,51.7,49.7,29.97,WNW,295,1.0,2.0,93,0.00,,,0.00,Wunderground v.1.15,2013-08-05 02:45:00,
2013-08-04 19:50:00,51.5,49.5,29.98,WNW,291,2.0,2.0,93,0.00,,,0.00,Wunderground v.1.15,2013-08-05 02:50:00,
2013-08-04 19:55:00,51.4,49.4,29.98,WNW,288,2.0,2.0,93,0.00,,,0.00,Wunderground v.1.15,2013-08-05 02:55:00,
2013-08-04 20:00:00,51.2,49.5,29.97,WNW,295,2.0,2.0,94,0.00,,,0.00,Wunderground v.1.15,2013-08-05 03:00:00,
2013-08-04 20:05:00,51.1,49.4,29.98,WNW,299,2.0,3.0,94,0.00,,,0.00,Wunderground v.1.15,2013-08-05 03:05:00,
2013-08-04 20:15:00,51.0,49.3,29.97,WNW,295,2.0,3.0,94,0.00,,,0.00,Wunderground v.1.15,2013-08-05 03:15:00,
2013-08-04 20:25:00,50.8,49.1,29.97,West,270,3.0,3.0,94,0.00,,,0.00,Wunderground v.1.15,2013-08-05 03:25:00,
2013-08-04 20:30:00,50.6,48.9,29.98,WNW,297,3.0,3.0,94,0.00,,,0.00,Wunderground v.1.15,2013-08-05 03:30:00,
2013-08-04 20:35:00,50.6,49.2,29.98,WNW,295,2.0,3.0,95,0.00,,,0.00,Wunderground v.1.15,2013-08-05 03:35:00,
2013-08-04 20:39:00,50.6,49.2,29.98,WNW,297,2.0,2.0,95,0.00,,,0.00,Wunderground v.1.15,2013-08-05 03:39:00,
2013-08-04 20:45:00,50.6,49.2,29.98,WNW,298,2.0,2.0,95,0.00,,,0.00,Wunderground v.1.15,2013-08-05 03:45:00,
2013-08-04 20:50:00,50.5,49.1,29.98,WNW,297,2.0,2.0,95,0.00,,,0.00,Wunderground v.1.15,2013-08-05 03:50:00,
2013-08-04 20:55:00,50.4,49.0,29.98,NW,305,2.0,2.0,95,0.00,,,0.00,Wunderground v.1.15,2013-08-05 03:55:00,
2013-08-04 21:00:00,50.4,49.0,29.98,WNW,290,2.0,2.0,95,0.00,,,0.00,Wunderground v.1.15,2013-08-05 04:00:00,
2013-08-04 21:05:00,50.3,48.9,29.98,WNW,289,2.0,2.0,95,0.00,,,0.00,Wunderground v.1.15,2013-08-05 04:05:00,
2013-08-04 21:09:00,50.1,48.7,29.98,WNW,290,1.0,1.0,95,0.00,,,0.00,Wunderground v.1.15,2013-08-05 04:09:00,
2013-08-04 21:15:00,50.1,48.7,29.99,WNW,290,1.0,1.0,95,0.00,,,0.00,Wunderground v.1.15,2013-08-05 04:15:00,
2013-08-04 21:20:00,50.0,48.6,29.99,WNW,290,1.0,1.0,95,0.00,,,0.00,Wunderground v.1.15,2013-08-05 04:20:00,
2013-08-04 21:25:00,49.9,48.5,29.99,WNW,289,0.0,1.0,95,0.00,,,0.00,Wunderground v.1.15,2013-08-05 04:25:00,
2013-08-04 21:30:00,50.0,48.6,29.99,WNW,289,0.0,0.0,95,0.00,,,0.00,Wunderground v.1.15,2013-08-05 04:30:00,
2013-08-04 21:35:00,50.0,48.6,29.99,WNW,290,0.0,0.0,95,0.00,,,0.00,Wunderground v.1.15,2013-08-05 04:35:00,
2013-08-04 21:40:00,50.0,48.6,29.99,WNW,290,0.0,0.0,95,0.00,,,0.00,Wunderground v.1.15,2013-08-05 04:40:00,
2013-08-04 21:45:00,50.0,48.6,29.99,WNW,290,0.0,0.0,95,0.00,,,0.00,Wunderground v.1.15,2013-08-05 04:45:00,
2013-08-04 21:49:00,49.9,48.5,29.99,WNW,289,0.0,0.0,95,0.00,,,0.00,Wunderground v.1.15,2013-08-05 04:49:00,
2013-08-04 21:55:00,49.7,48.3,29.99,WNW,290,0.0,0.0,95,0.00,,,0.00,Wunderground v.1.15,2013-08-05 04:55:00,
2013-08-04 22:05:00,49.4,48.0,29.99,WNW,290,0.0,0.0,95,0.00,,,0.00,Wunderground v.1.15,2013-08-05 05:05:00,
2013-08-04 22:10:00,49.1,47.7,29.99,WNW,290,0.0,0.0,95,0.00,,,0.00,Wunderground v.1.15,2013-08-05 05:10:00,
2013-08-04 22:15:00,48.9,47.5,29.99,WNW,290,0.0,0.0,95,0.00,,,0.00,Wunderground v.1.15,2013-08-05 05:15:00,
2013-08-04 22:20:00,49.0,47.6,29.99,WNW,289,0.0,0.0,95,0.00,,,0.00,Wunderground v.1.15,2013-08-05 05:20:00,
2013-08-04 22:25:00,49.1,47.7,29.99,ENE,74,0.0,1.0,95,0.00,,,0.00,Wunderground v.1.15,2013-08-05 05:25:00,
2013-08-04 22:30:00,49.2,47.8,29.99,ENE,73,0.0,0.0,95,0.00,,,0.00,Wunderground v.1.15,2013-08-05 05:30:00,
2013-08-04 22:35:00,49.1,47.7,29.99,ENE,74,0.0,0.0,95,0.00,,,0.00,Wunderground v.1.15,2013-08-05 05:35:00,
2013-08-04 22:44:00,48.9,47.5,29.99,ENE,74,0.0,0.0,95,0.00,,,0.00,Wunderground v.1.15,2013-08-05 05:44:00,
2013-08-04 22:50:00,48.6,47.2,29.99,ENE,72,0.0,0.0,95,0.00,,,0.00,Wunderground v.1.15,2013-08-05 05:50:00,
2013-08-04 22:55:00,48.7,47.3,29.99,ENE,72,0.0,0.0,95,0.00,,,0.00,Wunderground v.1.15,2013-08-05 05:55:00,
2013-08-04 23:00:00,48.9,47.8,29.99,East,89,0.0,1.0,96,0.00,,,0.00,Wunderground v.1.15,2013-08-05 06:00:00,
2013-08-04 23:05:00,49.1,48.0,29.99,East,101,1.0,1.0,96,0.00,,,0.00,Wunderground v.1.15,2013-08-05 06:05:00,
2013-08-04 23:10:00,49.0,47.9,29.99,ESE,103,1.0,2.0,96,0.00,,,0.00,Wunderground v.1.15,2013-08-05 06:10:00,
2013-08-04 23:15:00,48.8,47.4,29.99,East,101,1.0,2.0,95,0.00,,,0.00,Wunderground v.1.15,2013-08-05 06:15:00,
2013-08-04 23:20:00,48.7,47.3,29.99,ENE,70,2.0,2.0,95,0.00,,,0.00,Wunderground v.1.15,2013-08-05 06:20:00,
2013-08-04 23:30:00,48.5,47.1,29.99,East,79,1.0,1.0,95,0.00,,,0.00,Wunderground v.1.15,2013-08-05 06:30:00,
2013-08-04 23:34:00,48.5,47.4,29.99,East,79,1.0,1.0,96,0.00,,,0.00,Wunderground v.1.15,2013-08-05 06:34:00,
2013-08-04 23:40:00,48.4,47.3,29.99,ENE,76,2.0,2.0,96,0.00,,,0.00,Wunderground v.1.15,2013-08-05 06:40:00,
2013-08-04 23:44:00,48.4,47.3,29.99,East,83,2.0,2.0,96,0.00,,,0.00,Wunderground v.1.15,2013-08-05 06:44:00,
2013-08-04 23:50:00,48.2,47.1,29.99,ENE,75,2.0,2.0,96,0.00,,,0.00,Wunderground v.1.15,2013-08-05 06:50:00,
2013-08-04 23:55:00,48.0,46.9,29.99,ENE,75,1.0,2.0,96,0.00,,,0.00,Wunderground v.1.15,2013-08-05 06:55:00,